Weather in Lansing

United States     42°46′59″N   84°31′55″W
temp.,
°C
wind,
m/s
gust,
m/s
humid.,
%
clouds,
%
prec.,
mm/h
press.,
hPa
HPBL,
m
18 may, tue
tue1823:00+14s33868 0.0 102442
02:00+12s34920 0.0 102555
05:00+12s22910 0.0 102511
08:00+14se35860 0.0 1026124
11:00+20se57615 0.0 10261050
14:00+23sse6752100 0.0 10251540
17:00+23sse5656100 0.0 10241589
20:00+19se3779100 0.1 1024189
19 may, wed
wed1923:00+15se4980100 0.0 1025185
02:00+15se41074100 0.0 1025205
05:00+15sse3984100 0.0 1024172
08:00+17s31084100 0.0 1025288
11:00+21s5972100 0.1 1025711
14:00+23ssw6969100 1.6 10241089
17:00+22sw5872100 1.3 1024879
20:00+20s5981100 1.3 1024472
20 may, thu
thu2023:00+16s4109294 0.0 1025244
02:00+15s31091100 0.0 1025219
05:00+16s3781100 0.0 1026171
08:00+18s41084100 0.0 1026278
11:00+22s6969100 0.0 1026607
14:00+25ssw6861100 0.0 10251141
17:00+23wsw4671100 0.4 1025582
20:00+20ssw2283100 0.4 102521
21 may, fri
fri2123:00+19s3485100 0.0 102665
02:00+18s3692100 0.0 1026107
05:00+17ssw3993100 0.0 1026181
08:00+19ssw3988100 0.0 1027254
11:00+23sw5970100 0.0 1027937
14:00+26sw6852100 0.0 10261634
17:00+26sw585581 0.0 10251740
20:00+23sw4972100 0.0 1024309
22 may, sat
sat2223:00+21sw41073100 0.0 1024286
02:00+18sw41193100 1.0 1024313
05:00+18wsw5139448 0.1 1023485
08:00+19w5109486 0.1 1024489
11:00+19w5892100 0.3 1023468
14:00+24wnw567597 0.4 1021996
17:00+25wnw577098 0.4 10201051
20:00+23w36803 0.4 1019265